Simultaneous Nadir Overpasses (SNOs) Predictions

Prediction of SNOs between GOES-16 and NOAA-19 Satellite Orbit:

Table of predicted SNOs for the next 14.0 days since TLE Epoch: 5/5/2017
Index Date Time (GOES-16) GOES-16 Lat,Lon NOAA-19 Lat,Lon Distance(km) Time Diff (sec)
1 05/06/2017 21:22:28 0.00, -89.48 -0.69, -92.62 357.91 80
2 05/07/2017 21:11:00 0.00, -89.49 -0.09, -89.83 39.30 80
3 05/08/2017 21:02:14 0.00, -89.49 0.57, -87.05 279.48 80
4 05/11/2017 09:23:44 -0.00, -89.55 0.63, -92.16 298.94 80
5 05/12/2017 09:09:37 0.00, -89.55 -0.02, -89.37 19.94 80
6 05/13/2017 08:58:11 0.00, -89.56 -0.67, -86.59 338.59 80
7 05/15/2017 21:19:51 0.00, -89.54 -0.53, -91.75 252.61 80
8 05/16/2017 21:11:05 0.01, -89.55 0.15, -88.97 66.51 80
9 05/17/2017 20:59:37 0.01, -89.56 0.76, -86.18 385.69 80




NCC Satellite Simultaneous Nadir Overpasses (SNOs) Prediction Service
